Weather History for KMLB - August, 2013

Change the Weather History Date:

Monday, August 19, 2013

  Actual Average Record
Temperature  
Mean Temperature 86 °F 82 °F  
Max Temperature 90 °F 90 °F 96 °F (1993)
Min Temperature 81 °F 73 °F 66 °F (1965)
Degree Days  
Heating Degree Days 0 0  
Month to date heating degree days 0 0  
Since 1 June heating degree days 0 0  
Since 1 July heating degree days 0 0  
Cooling Degree Days 21 17  
Month to date cooling degree days 345 323  
Year to date cooling degree days 2234 2027  
Since 1 June cooling degree days 1373 1301  
Growing Degree Days 36 (Base 50)    
Moisture  
Dew Point 76 °F    
Average Humidity 75    
Maximum Humidity 91    
Minimum Humidity 59    
Precipitation  
Precipitation 0.00 in 0.26 in 5.91 in (2008)
Month to date precipitation 1.13 4.71  
Year to date precipitation 30.11 30.88  
Sea Level Pressure  
Sea Level Pressure 30.04 in    
Wind  
Wind Speed 9 mph (ESE)    
Max Wind Speed 18 mph    
Max Gust Speed 23 mph    
Visibility 10 miles    
Events      
T = Trace of Precipitation, MM = Missing Value Source: NWS Daily Summary

Daily Weather History Graph

Daily Weather History Graph

Search for Another Location

Airport or City:

Trip Planner

Search our weather history database for the weather conditions in past years. The results will help you decide how hot, cold, wet, or windy it might be!

Date:

Astronomy

Aug. 19, 2013 Rise Set
Actual Time 6:54 AM EDT 7:57 PM EDT
Civil Twilight 6:30 AM EDT 8:21 PM EDT
Nautical Twilight 6:01 AM EDT 8:50 PM EDT
Astronomical Twilight 5:31 AM EDT 9:19 PM EDT
Moon 6:47 PM EDT (8/19) 5:15 AM EDT (8/19)
Length of Visible Light 13h 51m
Length of Day
13h 02m
Waxing Gibbous, 97% of the Moon is Illuminated
Aug 19
Waxing Gibbous
Aug 20
Full
Aug 28
Last Quarter
Sep 5
New
Sep 12
First Quarter

Hourly Weather History & Observations

Time (EDT) Temp. Heat Index Dew Point Humidity Pressure Visibility Wind Dir Wind Speed Gust Speed Precip Events Conditions
12:53 AM 82.0 °F 90.2 °F 77.0 °F 85% 30.09 in 10.0 mi ESE 8.1 mph - N/A   Clear
1:53 AM 82.0 °F 90.2 °F 77.0 °F 85% 30.08 in 10.0 mi ESE 5.8 mph - N/A   Clear
2:53 AM 81.0 °F 87.9 °F 77.0 °F 88% 30.07 in 10.0 mi Calm Calm - N/A   Clear
3:53 AM 82.0 °F 90.2 °F 77.0 °F 85% 30.04 in 10.0 mi ESE 6.9 mph - N/A   Clear
4:53 AM 82.0 °F 90.2 °F 77.0 °F 85% 30.02 in 10.0 mi East 8.1 mph - N/A   Clear
5:53 AM 82.0 °F 90.2 °F 77.0 °F 85% 30.02 in 10.0 mi ESE 9.2 mph - N/A   Clear
6:53 AM 82.0 °F 88.6 °F 75.0 °F 79% 30.03 in 10.0 mi ESE 8.1 mph - N/A   Clear
7:53 AM 82.9 °F 92.8 °F 78.1 °F 85% 30.04 in 10.0 mi ESE 8.1 mph - N/A   Scattered Clouds
8:53 AM 84.0 °F 93.7 °F 77.0 °F 79% 30.04 in 10.0 mi SE 12.7 mph - N/A   Scattered Clouds
9:53 AM 86.0 °F 96.9 °F 77.0 °F 74% 30.06 in 10.0 mi SE 9.2 mph - N/A   Scattered Clouds
10:53 AM 87.1 °F 97.3 °F 75.9 °F 69% 30.07 in 10.0 mi SE 15.0 mph 19.6 mph N/A   Scattered Clouds
11:53 AM 88.0 °F 97.5 °F 75.0 °F 65% 30.07 in 10.0 mi ESE 12.7 mph - N/A   Scattered Clouds
12:53 PM 89.1 °F 99.1 °F 75.0 °F 63% 30.06 in 10.0 mi ESE 11.5 mph - N/A   Clear
1:53 PM 89.1 °F 98.0 °F 73.9 °F 61% 30.05 in 10.0 mi ESE 12.7 mph - N/A   Scattered Clouds
2:53 PM 90.0 °F 100.2 °F 75.0 °F 61% 30.02 in 10.0 mi ESE 15.0 mph - N/A   Clear
3:53 PM 88.0 °F 97.5 °F 75.0 °F 65% 30.02 in 10.0 mi East 11.5 mph - N/A   Clear
4:53 PM 87.1 °F 96.3 °F 75.0 °F 67% 30.00 in 10.0 mi ESE 13.8 mph - N/A   Clear
5:53 PM 88.0 °F 95.6 °F 73.0 °F 61% 29.99 in 10.0 mi ESE 13.8 mph 18.4 mph N/A   Clear
6:53 PM 86.0 °F 93.8 °F 73.9 °F 67% 29.99 in 10.0 mi ESE 12.7 mph - N/A   Clear
7:53 PM 84.0 °F 91.9 °F 75.0 °F 74% 30.01 in 10.0 mi East 11.5 mph - N/A   Clear
8:53 PM 84.0 °F 91.9 °F 75.0 °F 74% 30.03 in 10.0 mi SE 6.9 mph - N/A   Clear
9:53 PM 82.9 °F 90.2 °F 75.0 °F 77% 30.04 in 10.0 mi ESE 4.6 mph - N/A   Clear
10:53 PM 82.9 °F 90.8 °F 75.9 °F 79% 30.05 in 10.0 mi East 5.8 mph - N/A   Clear
11:53 PM 82.0 °F 88.6 °F 75.0 °F 79% 30.06 in 10.0 mi East 4.6 mph - N/A   Clear